Vertical_Velocity
-2 -3 -0 -1 -3 -2 0 1 1 2 -0 -2 -0 -0 1 0 -0 0 1 -2 -1 -3 -0 -0 -0 -0 1 -0 -2 0 1 -2 -0 0 1 1 0 -0 -1 2 2 1 2 2
-6 -5 -2 -1 -1 -2 -4 1 -1 1 3 -1 0 1 0 1 -1 0 -0 0 -0 0 -1 1 -1 0 0 -0 0 -1 -1 2 1 8 9 3 1 0 -0 -0 -0 -2 2 5
1 -2 -5 -1 -1 -1 -2 -0 1 -1 -3 -1 -1 0 0 1 -0 0 0 -0 -0 -0 0 0 0 1 1 -0 0 -0 -2 -0 1 -2 2 -2 2 1 0 -2 1 -2 -5 0
-2 -5 -2 -1 -1 -3 -0 -2 2 1 -0 1 -0 0 0 -0 1 -1 -0 2 -1 -2 -0 0 0 1 2 1 1 0 -1 -1 -0 0 0 -0 -0 -1 0 1 -4 1 0 -0
-3 -1 -5 -5 -1 -2 -4 -0 -0 -4 -0 -0 1 0 2 0 0 2 1 -0 0 -0 -1 -2 -2 -2 -0 -3 3 -0 0 1 -0 1 0 1 0 -0 0 -0 -1 2 2 -9
-4 -1 -4 -5 -5 -1 2 2 -0 0 -2 -1 3 1 1 1 1 1 1 -2 -1 0 1 -0 0 -0 -0 -2 -4 -0 -1 -2 0 0 -0 0 3 -9 -3 -1 0 -4 0 -13
1 0 -2 -3 -2 -4 -2 1 1 1 -2 2 1 0 1 0 -0 0 -0 0 1 1 -1 -3 -2 -1 -1 -0 1 -1 -1 -1 -0 0 2 1 6 0 -1 -4 -3 0 1 -2
-0 -1 -2 -2 -1 -4 -1 -2 2 1 -1 2 -1 -1 1 -1 -0 1 -1 -1 -0 0 0 0 2 3 4 2 1 1 -1 -1 0 2 0 -4 1 0 -2 -5 -5 -4 -2 -3
-3 2 -3 1 0 -3 -4 0 -1 2 3 1 1 1 1 1 -0 2 1 1 3 -0 0 0 -0 -1 -2 3 4 0 0 -0 1 1 2 -0 4 1 -1 1 5 -0 -0 -1
1 -2 2 2 -0 -1 -1 -1 0 -0 2 -2 1 1 1 0 0 1 0 0 0 1 0 1 -0 -0 -1 -0 -1 0 1 2 -1 -0 -0 -6 -3 -1 0 8 7 -0 1 0
0 1 0 4 2 1 -2 1 1 1 0 -11 2 0 -1 -2 1 1 2 4 3 1 4 1 -2 1 -2 2 -3 -4 -5 -1 -1 3 3 -3 -1 3 4 4 0 -2 -1 -1
-5 1 1 0 -1 -0 -0 -2 -2 1 1 -8 1 1 -4 -5 2 -0 -0 4 -0 -2 1 2 1 1 2 -1 -0 2 4 -5 -4 -3 -7 0 -1 2 3 -2 0 0 -0 -1
-3 2 -1 -3 -3 1 6 -1 -2 -1 4 -23 6 1 2 -2 -5 9 3 -2 3 1 2 -2 -1 1 0 -1 -2 2 1 -0 1 4 -3 -4 -0 1 -1 -12 3 -0 1 1
-3 4 1 -0 -1 3 5 0 2 0 -1 5 -12 1 -5 2 -0 -1 -11 -6 7 2 3 1 -1 0 1 0 2 1 -1 2 -3 -3 -1 0 -1 0 2 0 0 -2 1 1
-1 -0 2 -0 -1 -0 -0 -0 1 4 2 1 -8 -9 -0 -3 1 -1 1 7 5 -4 4 1 -0 -0 1 1 2 0 -3 -5 -2 -4 -2 -1 0 -1 -3 -2 -2 -0 -2 0
1 2 1 1 -0 1 1 -1 0 -2 -3 4 1 -4 1 4 3 6 1 5 2 -1 7 -0 -2 1 1 0 -0 -5 -1 -1 0 -0 -2 -1 2 2 -1 -2 -2 -1 -1 -0
6 -4 1 -1 2 -1 -2 -1 0 1 -1 4 -3 -3 -5 5 -0 3 -1 9 -6 4 -6 3 -1 0 -1 1 0 -2 -1 0 0 0 0 -1 -1 1 -0 -1 -3 -2 -0 0
-1 -3 -1 1 0 -2 -1 0 3 -0 3 1 2 -6 0 -2 3 3 -2 -4 -3 2 -3 3 -1 3 1 1 -7 1 -0 1 0 1 -0 -1 -2 -2 -1 -0 -2 -1 -1 0
-4 -3 -1 3 -2 -0 1 -1 2 1 -2 2 2 2 -0 1 1 4 -4 -1 1 -1 0 1 0 1 -2 -7 -2 0 -3 -3 -1 -1 -2 -1 1 0 -1 -1 -1 -1 -0 0
-3 -1 1 -0 -3 1 -2 15 4 4 2 2 1 -1 -2 4 1 0 -0 1 -0 1 -2 -1 2 -3 -4 1 2 2 1 1 -1 -1 -2 -1 -1 1 1 -1 -0 -1 -1 1
0 -3 -1 -1 -1 -2 0 1 3 1 2 -0 -5 -0 1 4 1 -0 -0 -0 0 1 1 2 -0 -2 1 1 0 0 -2 -0 1 -1 -2 -1 -1 -2 -3 -0 1 -1 -1 -2
0 -1 -3 -1 -0 1 4 -1 1 2 -1 3 2 1 -0 -1 1 -1 1 -1 0 0 0 2 -0 1 0 1 0 -1 -1 0 -1 -1 -1 0 0 0 1 0 0 1 1 1
-1 -1 -2 3 -2 4 3 -1 1 1 1 -1 -2 -1 1 -1 -0 -0 -0 2 0 0 2 -2 -2 0 0 -1 -0 1 0 -1 -2 -2 -3 -1 0 0 1 1 1 1 1 0
-1 -1 0 0 1 -0 -1 0 1 -0 0 -1 1 -0 2 -0 -0 0 0 0 1 1 1 -3 -0 -2 -0 -0 -0 -1 0 0 1 1 0 -0 1 1 1 0 -0 0 0 -0
-2 0 -2 0 -1 -1 -0 -0 -1 -0 -0 0 -1 -0 2 -0 1 0 0 3 -0 -1 -3 -1 -1 -1 -1 -1 -0 -3 -1 -1 1 1 0 1 1 1 1 1 0 -0 -1 -0
-1 1 1 -1 0 -1 -0 -1 -1 0 -0 -1 2 0 1 -1 0 2 -2 1 -2 -3 -1 -1 -1 -1 -0 -0 -1 -0 -1 -0 -0 -1 -0 -1 -1 -0 -0 -0 -0 -0 -0 -0
1 -2 -1 -0 -0 -1 -1 -0 -1 -0 -1 0 1 2 -2 1 1 1 -1 -3 -2 -1 -1 -1 0 -3 -2 -1 -1 -1 -1 -0 0 0 -0 -0 0 0 -0 1 0 -0 -0 -0
Height
1497 1492 1486 1480 1473 1467 1463 1461 1460 1459 1456 1458 1462 1464 1465 1465 1463 1462 1461 1462 1463 1462 1465 1466 1465 1464 1469 1472 1473 1472 1477 1480 1490 1493 1496 1496 1492 1489 1487 1484 1496 1502 1498 1471
1497 1492 1487 1481 1474 1468 1465 1463 1461 1459 1457 1459 1462 1464 1463 1464 1462 1462 1461 1461 1462 1465 1465 1466 1468 1470 1473 1473 1474 1473 1476 1484 1492 1497 1498 1497 1493 1491 1493 1497 1500 1501 1484 1468
1498 1491 1486 1482 1476 1470 1467 1465 1462 1460 1459 1463 1462 1463 1463 1462 1463 1463 1463 1463 1464 1464 1465 1467 1469 1470 1474 1475 1474 1474 1476 1481 1479 1471 1478 1483 1493 1489 1492 1494 1494 1483 1481 1473
1497 1493 1487 1482 1477 1471 1469 1468 1471 1470 1464 1464 1465 1465 1465 1462 1461 1462 1462 1462 1461 1462 1465 1467 1469 1471 1474 1476 1476 1476 1475 1484 1491 1484 1484 1486 1486 1485 1489 1494 1485 1485 1475 1476
1497 1492 1487 1483 1478 1473 1472 1473 1474 1471 1469 1468 1465 1464 1462 1462 1463 1463 1460 1460 1462 1461 1461 1462 1466 1469 1470 1469 1476 1476 1479 1487 1490 1485 1487 1488 1490 1483 1483 1485 1485 1483 1479 1474
1497 1493 1489 1484 1480 1476 1474 1475 1475 1474 1470 1467 1463 1461 1462 1462 1463 1463 1462 1461 1460 1462 1464 1466 1466 1467 1468 1469 1471 1474 1477 1485 1485 1479 1487 1486 1477 1470 1473 1475 1476 1476 1477 1468
1496 1492 1489 1485 1482 1480 1479 1478 1476 1475 1469 1468 1465 1465 1464 1462 1462 1461 1462 1462 1461 1467 1465 1467 1468 1469 1470 1471 1473 1473 1476 1479 1484 1481 1486 1476 1461 1464 1465 1467 1468 1472 1468 1465
1495 1493 1490 1487 1483 1482 1480 1479 1478 1477 1473 1470 1468 1468 1466 1463 1462 1461 1461 1463 1463 1465 1467 1467 1467 1469 1470 1472 1474 1473 1474 1475 1481 1479 1476 1463 1456 1463 1464 1464 1460 1463 1464 1463
1493 1491 1489 1488 1485 1482 1481 1480 1479 1478 1477 1470 1471 1469 1467 1462 1460 1461 1462 1463 1463 1465 1466 1465 1464 1461 1463 1469 1473 1475 1476 1474 1477 1485 1485 1468 1454 1456 1458 1460 1458 1459 1461 1461
1491 1490 1488 1486 1485 1482 1481 1480 1479 1478 1477 1470 1470 1468 1466 1465 1463 1461 1462 1463 1465 1464 1463 1465 1464 1460 1463 1465 1469 1473 1475 1477 1476 1477 1477 1462 1455 1458 1459 1462 1461 1458 1459 1459
1492 1489 1487 1484 1483 1482 1481 1480 1478 1478 1476 1468 1466 1466 1466 1465 1464 1459 1462 1462 1463 1464 1462 1462 1463 1459 1459 1460 1460 1465 1465 1470 1473 1475 1477 1470 1455 1459 1458 1457 1457 1458 1458 1457
1489 1487 1484 1482 1480 1480 1478 1478 1477 1476 1475 1467 1463 1461 1461 1462 1463 1465 1460 1457 1455 1454 1455 1459 1458 1458 1461 1455 1456 1463 1464 1457 1458 1459 1455 1452 1454 1454 1454 1456 1457 1457 1457 1456
1485 1483 1480 1478 1477 1477 1476 1475 1474 1473 1469 1460 1454 1449 1451 1451 1451 1458 1462 1455 1454 1452 1452 1454 1454 1452 1454 1452 1452 1453 1457 1459 1456 1457 1447 1451 1453 1454 1454 1456 1455 1455 1455 1454
1483 1481 1478 1476 1475 1473 1473 1472 1471 1471 1470 1463 1449 1446 1446 1446 1447 1449 1451 1452 1451 1451 1451 1450 1449 1449 1452 1450 1451 1450 1450 1455 1451 1450 1449 1450 1450 1451 1452 1452 1453 1452 1452 1451
1478 1477 1475 1473 1472 1470 1469 1467 1465 1465 1468 1460 1449 1443 1438 1438 1436 1440 1445 1447 1451 1454 1449 1447 1445 1449 1451 1453 1454 1448 1447 1444 1444 1440 1442 1443 1445 1448 1449 1450 1449 1448 1447 1446
1476 1474 1472 1470 1468 1466 1465 1463 1462 1461 1461 1460 1451 1441 1434 1433 1432 1436 1441 1444 1448 1451 1445 1441 1444 1444 1446 1446 1444 1437 1439 1439 1440 1440 1442 1443 1444 1445 1445 1446 1445 1444 1443 1442
1473 1471 1469 1467 1464 1462 1463 1463 1461 1460 1460 1459 1452 1442 1434 1432 1433 1436 1440 1443 1445 1447 1445 1437 1439 1442 1443 1444 1438 1432 1434 1437 1438 1439 1440 1442 1442 1443 1443 1442 1441 1440 1439 1438
1470 1467 1465 1462 1460 1460 1460 1459 1458 1458 1458 1457 1453 1441 1434 1432 1432 1434 1437 1439 1442 1437 1437 1435 1438 1442 1442 1437 1429 1430 1432 1434 1436 1437 1437 1439 1439 1439 1438 1437 1436 1435 1435 1435
1465 1464 1462 1461 1459 1459 1458 1457 1456 1456 1459 1454 1450 1440 1430 1428 1430 1430 1434 1436 1435 1433 1435 1434 1437 1435 1432 1425 1425 1427 1429 1432 1433 1434 1435 1435 1435 1434 1434 1433 1432 1431 1430 1431
1461 1461 1461 1459 1458 1458 1458 1456 1455 1454 1453 1452 1447 1440 1433 1428 1426 1427 1429 1430 1430 1431 1433 1433 1432 1426 1422 1422 1423 1424 1426 1428 1430 1431 1432 1432 1431 1430 1429 1428 1427 1426 1425 1426
1459 1459 1460 1458 1457 1457 1456 1453 1452 1449 1447 1445 1439 1435 1431 1426 1425 1427 1429 1429 1430 1429 1429 1429 1426 1419 1419 1420 1422 1423 1425 1427 1427 1428 1429 1428 1427 1426 1425 1423 1422 1420 1420 1421
1458 1458 1458 1457 1456 1455 1454 1448 1446 1444 1437 1436 1434 1432 1431 1427 1426 1427 1429 1429 1432 1426 1429 1429 1420 1416 1420 1421 1422 1423 1425 1425 1426 1426 1425 1424 1424 1423 1421 1420 1417 1416 1415 1416
1455 1456 1457 1456 1455 1452 1447 1441 1439 1438 1436 1436 1434 1432 1430 1429 1428 1429 1429 1426 1427 1430 1428 1420 1414 1419 1420 1421 1422 1423 1424 1424 1425 1425 1423 1422 1421 1420 1418 1417 1415 1414 1413 1413
1454 1456 1454 1451 1447 1444 1440 1439 1438 1438 1437 1436 1434 1432 1431 1429 1429 1429 1429 1429 1429 1426 1422 1415 1414 1417 1419 1420 1422 1423 1424 1424 1423 1424 1423 1422 1421 1419 1417 1416 1415 1414 1413 1412
1454 1455 1451 1445 1442 1441 1440 1439 1439 1438 1437 1435 1434 1433 1432 1430 1429 1428 1429 1427 1423 1418 1411 1412 1413 1415 1418 1420 1421 1423 1424 1424 1424 1423 1422 1421 1420 1418 1417 1415 1414 1413 1412 1411
1451 1449 1447 1442 1442 1440 1439 1438 1438 1437 1436 1435 1434 1432 1430 1428 1427 1427 1423 1422 1415 1411 1412 1411 1412 1415 1418 1420 1421 1422 1423 1424 1423 1423 1422 1420 1419 1418 1416 1415 1413 1412 1411 1410
1446 1442 1440 1440 1440 1438 1437 1437 1437 1436 1436 1434 1433 1429 1426 1428 1423 1423 1419 1416 1411 1409 1409 1410 1412 1414 1417 1420 1421 1422 1423 1423 1423 1422 1421 1419 1418 1417 1415 1414 1412 1410 1409 1408